Wind_Speed
9 10 9 10 10 10 10 10 10 11 12 12 12 12 12 12 11 11 11 11 11 11 11 10 10 10 10 10 9 9 8 7 7 8 7 7 7 7 6 7 6 6 7
9 9 9 9 10 10 9 9 10 10 11 11 11 11 11 11 11 11 10 10 10 10 10 9 9 9 9 8 8 8 8 7 7 7 7 6 6 6 6 6 6 6 6
8 8 8 8 9 9 9 9 10 10 10 11 11 11 11 11 11 10 10 9 9 9 8 8 8 8 7 7 7 7 7 7 7 6 6 6 5 5 5 5 5 5 6
7 8 8 8 8 8 9 9 9 9 10 10 10 10 10 10 10 9 9 8 8 7 7 7 7 7 6 7 7 6 6 6 6 6 5 5 4 4 4 4 4 5 5
7 7 7 7 8 8 8 9 9 9 9 9 9 9 10 9 9 9 8 8 7 7 7 7 6 6 6 6 5 5 5 5 5 4 4 4 4 4 4 4 4 4 4
7 7 7 7 7 8 9 9 9 9 9 9 9 9 9 8 8 8 8 7 6 6 6 5 5 5 4 5 4 4 4 4 4 4 4 4 3 3 3 3 3 4 4
7 7 7 7 7 7 8 9 8 8 8 8 8 8 8 8 7 7 7 6 5 5 4 4 3 3 3 3 2 3 3 3 3 3 3 3 3 2 3 3 3 3 3
7 7 7 7 7 7 8 8 8 7 8 8 8 7 7 7 6 6 6 5 5 4 4 3 3 2 2 1 2 2 2 2 2 2 2 2 2 2 2 2 2 2 2
6 7 7 7 7 7 8 8 8 8 7 8 7 7 7 6 6 6 6 5 5 4 3 3 2 2 1 1 1 1 1 1 1 1 1 1 1 0 0 0 0 1 1
6 7 7 7 7 7 8 8 8 7 8 8 7 7 6 6 7 6 6 5 5 4 3 3 2 1 1 1 1 1 1 1 1 1 1 1 1 0 1 2 1 1 1
6 7 8 8 8 8 8 8 8 8 8 8 8 7 7 6 6 7 6 6 5 4 4 3 2 2 1 1 1 1 2 1 1 2 2 2 2 1 1 1 2 2 1
7 8 8 8 9 9 9 8 8 8 8 8 8 8 7 7 6 6 6 6 5 4 4 3 3 2 2 2 2 2 2 2 3 3 3 3 3 2 2 2 2 2 2
8 8 9 9 9 10 9 9 9 8 8 8 8 8 8 7 7 7 6 6 5 5 4 4 3 3 3 3 3 3 3 4 4 4 4 4 3 3 3 4 3 3 3
9 9 10 10 9 10 10 9 8 8 8 8 8 8 8 8 8 8 7 6 6 5 5 5 4 4 4 4 4 4 5 4 4 5 5 4 4 4 4 4 4 4 4
10 11 11 10 10 11 11 10 9 9 8 9 9 9 9 8 8 8 8 7 6 6 5 5 5 5 5 5 5 5 5 5 5 5 5 5 5 5 5 5 5 5 5
10 11 12 11 11 12 12 11 10 10 9 9 9 9 9 9 9 9 9 7 7 6 6 5 5 5 5 5 4 5 5 5 5 5 5 5 5 5 5 5 5 5 5
11 12 13 13 13 13 13 12 12 11 10 10 10 10 9 9 9 9 9 9 8 7 7 6 6 5 5 5 4 4 4 5 5 5 5 5 5 5 5 5 5 6 6
12 13 13 13 14 14 14 14 14 13 12 11 11 11 10 10 10 9 10 10 9 8 8 7 7 6 6 5 5 5 5 5 5 5 5 5 5 5 6 6 7 7 7
12 13 14 14 15 15 15 15 15 14 13 12 12 12 11 11 10 10 10 10 9 9 9 9 8 8 7 6 6 5 5 5 6 5 5 6 6 6 7 7 8 8 8
13 13 14 15 14 14 14 15 14 14 14 13 13 12 12 12 12 12 11 10 10 10 10 10 9 9 8 8 7 6 6 6 5 6 6 6 7 7 7 7 8 9 9
14 14 14 14 14 15 15 15 15 15 14 14 14 14 13 13 13 12 12 11 10 10 11 10 10 9 9 8 8 7 6 6 5 5 6 6 7 8 8 8 9 9 9
13 14 15 15 15 16 16 15 14 14 15 15 14 14 14 13 13 12 12 11 10 10 11 11 10 9 9 9 8 8 7 7 6 6 6 7 8 8 9 9 9 9 9
12 13 15 15 15 15 16 15 14 13 13 13 13 14 14 14 13 13 13 12 11 11 11 11 10 10 9 9 9 8 8 7 7 7 7 7 8 8 9 9 9 9 9
13 13 14 15 14 14 15 15 13 12 13 12 13 14 14 13 13 13 13 13 12 12 11 11 11 11 10 10 9 9 8 7 7 7 7 7 8 8 9 9 9 9 9
13 13 13 15 15 14 14 15 14 13 13 13 13 14 13 13 13 13 13 13 12 12 11 11 11 12 11 11 10 9 9 8 8 7 7 8 8 8 8 9 9 9 9
14 13 13 13 14 15 15 15 15 14 14 13 13 14 14 13 13 13 14 14 13 13 12 11 11 11 12 11 10 10 9 9 8 8 7 8 8 8 8 9 9 9 9
Wind_Direction
106 109 116 117 118 116 116 115 115 116 116 115 114 111 110 109 108 104 103 104 103 104 103 101 99 102 103 100 96 91 89 88 88 88 87 88 87 83 82 81 80 83 83
110 109 112 118 118 120 121 120 119 119 118 119 116 113 114 114 112 110 107 108 108 106 104 103 102 101 101 98 94 91 89 87 91 88 87 88 87 83 84 84 85 90 87
113 115 115 119 122 124 127 125 122 121 121 120 118 117 116 118 117 115 112 110 111 108 103 102 103 103 100 98 94 92 89 87 88 86 85 87 88 85 87 88 88 93 93
119 122 125 125 128 131 133 131 127 124 123 121 121 122 122 120 118 117 116 114 112 109 105 102 103 105 100 98 95 93 90 89 86 82 83 85 84 82 87 90 92 97 98
128 129 133 135 137 141 141 139 135 132 129 124 125 126 125 123 122 122 119 117 115 111 107 106 105 101 100 101 98 94 93 91 87 84 85 84 82 80 93 102 102 99 100
140 140 139 141 144 150 151 147 140 138 133 128 125 129 131 130 127 125 125 122 118 115 111 110 111 107 103 102 101 100 99 96 91 87 86 88 86 84 92 99 96 95 101
153 151 151 154 155 157 159 157 151 142 135 135 134 135 138 137 135 135 132 129 126 125 120 119 126 122 113 104 107 114 113 109 100 94 92 95 99 96 93 80 91 99 108
167 163 164 168 169 170 170 168 164 155 147 145 145 146 148 149 147 148 147 142 138 137 135 135 137 139 132 125 127 127 124 115 104 105 112 118 116 111 99 83 82 103 112
180 180 178 178 179 178 178 175 172 167 163 157 156 159 158 158 160 161 163 159 156 154 148 145 147 146 151 149 146 142 166 149 117 133 155 178 162 160 171 208 60 130 125
190 192 191 191 188 185 185 182 178 179 176 170 167 167 170 170 169 169 171 174 175 175 171 168 165 159 179 171 171 187 221 252 208 219 220 231 231 209 231 255 253 231 199
197 201 203 203 200 198 194 190 187 186 183 180 179 178 179 179 175 174 177 182 189 192 188 189 194 206 210 212 215 215 240 265 252 248 257 257 260 253 244 260 260 256 233
205 205 207 207 208 206 202 199 196 194 191 190 190 190 189 190 188 185 186 190 196 201 202 206 215 221 231 233 237 239 255 265 262 252 260 261 260 261 262 266 278 270 259
211 208 209 210 213 208 208 205 204 201 198 199 199 197 199 200 199 199 194 199 200 205 209 217 219 225 236 243 251 255 262 266 260 257 253 251 257 265 271 273 275 267 263
218 214 213 212 213 210 207 207 209 208 205 206 207 208 208 206 206 207 205 204 206 210 214 223 229 236 246 256 261 260 261 265 263 262 258 251 258 266 271 274 272 268 271
222 220 217 218 220 217 211 210 214 215 215 214 213 212 211 211 212 212 208 210 211 214 216 225 236 239 246 260 261 258 261 266 265 263 259 256 262 272 275 276 280 276 282
228 225 224 224 224 223 220 217 216 217 221 222 218 217 220 218 217 218 216 214 215 216 218 226 232 238 245 254 255 253 261 265 262 264 267 265 262 265 269 274 276 283 288
234 232 232 230 229 227 224 221 219 220 224 226 223 223 227 225 221 221 220 217 218 222 224 229 233 239 246 251 251 255 260 265 264 265 270 271 271 270 268 272 276 280 283
240 237 238 235 234 232 227 225 225 226 227 231 229 228 229 226 222 222 223 221 222 226 229 234 236 244 251 252 251 257 264 268 266 269 273 273 281 280 275 276 276 281 284
247 243 241 239 238 235 231 231 229 229 230 234 231 226 227 224 224 227 226 225 226 228 232 233 237 242 244 247 252 262 269 274 277 271 274 278 281 283 284 287 284 280 285
249 248 244 240 237 235 232 232 228 226 229 234 231 228 228 226 228 230 230 231 233 234 234 234 238 239 241 247 254 263 268 270 270 271 276 280 286 291 291 291 290 282 283
251 248 245 239 236 236 234 233 232 231 233 234 232 231 230 229 229 230 232 233 235 236 233 234 235 237 242 248 255 263 261 259 266 273 279 284 288 289 291 293 294 289 284
251 246 241 238 238 237 234 233 236 237 237 235 234 234 233 230 230 231 230 234 237 237 234 234 234 238 242 248 255 259 256 256 262 270 276 284 286 287 290 295 297 294 291
253 246 239 238 239 237 235 236 237 239 235 234 235 235 235 232 233 233 231 233 237 236 235 235 236 239 242 247 254 256 255 256 261 267 275 283 287 288 290 293 296 294 293
251 250 241 237 237 234 231 233 235 239 238 237 234 234 234 235 234 233 233 235 238 237 236 235 237 239 243 247 250 250 249 251 258 269 275 280 288 290 289 291 293 292 289
252 250 246 238 234 234 235 234 236 238 240 239 236 234 234 236 236 235 235 235 236 237 237 239 240 243 245 246 247 246 246 247 256 266 273 279 286 289 290 291 291 292 291
253 251 246 241 236 237 238 238 240 241 242 238 235 234 235 237 237 235 235 235 239 238 236 240 241 243 245 247 247 246 246 249 254 263 272 279 283 287 290 293 294 292 294
Height
5885 5885 5886 5886 5887 5887 5888 5888 5889 5889 5890 5890 5890 5891 5891 5892 5892 5893 5893 5893 5894 5894 5895 5895 5896 5896 5896 5897 5897 5897 5897 5897 5897 5897 5897 5897 5896 5896 5896 5895 5895 5895 5894
5886 5886 5887 5888 5888 5889 5889 5890 5890 5890 5891 5891 5891 5892 5892 5893 5893 5894 5894 5895 5895 5896 5896 5897 5897 5897 5897 5898 5898 5898 5898 5898 5898 5898 5898 5898 5897 5897 5897 5896 5896 5896 5896
5887 5887 5888 5888 5889 5890 5890 5891 5891 5891 5892 5892 5892 5893 5893 5894 5894 5895 5896 5896 5897 5897 5898 5898 5898 5898 5899 5899 5899 5899 5899 5899 5899 5899 5899 5899 5898 5898 5898 5897 5897 5897 5897
5887 5887 5888 5889 5890 5890 5891 5891 5892 5892 5892 5893 5893 5893 5894 5895 5895 5896 5897 5897 5898 5898 5899 5899 5899 5899 5900 5900 5900 5900 5900 5900 5900 5900 5900 5900 5899 5899 5898 5898 5898 5898 5897
5887 5888 5889 5889 5890 5891 5891 5892 5892 5893 5893 5893 5894 5894 5895 5895 5896 5897 5898 5898 5899 5899 5900 5900 5900 5900 5901 5901 5901 5901 5901 5901 5901 5901 5901 5901 5900 5900 5899 5899 5899 5898 5898
5887 5888 5889 5890 5890 5891 5892 5892 5893 5893 5894 5894 5894 5895 5895 5896 5897 5898 5899 5899 5900 5900 5900 5901 5901 5901 5901 5902 5902 5902 5902 5902 5902 5902 5902 5901 5901 5901 5900 5900 5900 5899 5899
5887 5888 5889 5890 5891 5892 5892 5893 5893 5893 5894 5894 5895 5895 5896 5897 5897 5898 5899 5900 5900 5901 5901 5901 5902 5902 5902 5902 5902 5902 5902 5902 5902 5902 5902 5902 5902 5902 5901 5901 5900 5900 5900
5887 5887 5888 5890 5891 5891 5892 5893 5893 5894 5894 5895 5895 5896 5897 5897 5898 5899 5899 5900 5900 5901 5901 5901 5902 5902 5902 5902 5902 5902 5903 5903 5902 5902 5902 5902 5902 5902 5902 5901 5901 5901 5900
5886 5887 5888 5889 5890 5891 5892 5892 5893 5893 5894 5895 5895 5896 5897 5897 5898 5898 5899 5900 5900 5901 5901 5902 5902 5902 5902 5902 5902 5903 5903 5903 5903 5902 5902 5902 5902 5902 5902 5901 5901 5901 5901
5886 5887 5888 5889 5890 5890 5891 5892 5892 5893 5894 5894 5895 5896 5896 5897 5897 5898 5899 5900 5900 5901 5901 5901 5902 5902 5902 5902 5902 5903 5903 5903 5902 5902 5902 5902 5902 5902 5902 5901 5901 5901 5901
5885 5886 5887 5888 5889 5890 5890 5891 5892 5892 5893 5894 5895 5895 5896 5896 5897 5898 5899 5899 5900 5900 5901 5901 5902 5902 5902 5902 5902 5902 5903 5903 5902 5902 5902 5902 5902 5902 5901 5901 5901 5901 5901
5884 5885 5887 5888 5888 5889 5890 5890 5891 5892 5892 5893 5894 5895 5895 5896 5896 5897 5898 5899 5899 5900 5900 5901 5901 5901 5901 5902 5902 5902 5902 5902 5902 5902 5902 5902 5902 5901 5901 5901 5901 5901 5900
5883 5884 5885 5886 5887 5888 5889 5889 5890 5891 5892 5892 5893 5894 5895 5895 5896 5896 5897 5898 5898 5899 5900 5900 5900 5901 5901 5901 5901 5901 5901 5901 5901 5901 5901 5901 5901 5901 5901 5901 5900 5900 5900
5882 5883 5884 5885 5886 5886 5887 5888 5889 5890 5891 5892 5892 5893 5894 5895 5895 5896 5897 5897 5898 5898 5899 5899 5900 5900 5900 5900 5901 5901 5901 5901 5900 5901 5901 5900 5901 5900 5900 5900 5900 5900 5899
5880 5881 5883 5884 5885 5885 5886 5887 5888 5889 5890 5891 5891 5892 5893 5893 5894 5895 5895 5896 5897 5898 5898 5899 5899 5899 5900 5900 5900 5900 5900 5900 5900 5900 5899 5899 5900 5900 5899 5899 5899 5899 5898
5879 5880 5881 5882 5883 5884 5885 5885 5886 5887 5888 5889 5890 5891 5891 5892 5893 5894 5895 5895 5896 5897 5897 5898 5898 5898 5899 5899 5899 5899 5899 5899 5899 5898 5898 5898 5898 5898 5898 5898 5898 5897 5897
5877 5878 5879 5880 5881 5882 5883 5884 5885 5885 5886 5887 5888 5889 5890 5891 5892 5893 5894 5894 5895 5896 5896 5897 5897 5897 5898 5898 5898 5898 5898 5898 5898 5898 5898 5897 5897 5897 5897 5897 5897 5897 5896
5874 5876 5877 5878 5879 5880 5881 5882 5883 5884 5885 5885 5886 5887 5888 5889 5890 5891 5892 5893 5894 5894 5895 5896 5896 5896 5897 5897 5897 5897 5897 5897 5897 5897 5897 5896 5896 5896 5896 5896 5896 5895 5895
5872 5873 5874 5875 5876 5877 5878 5880 5881 5882 5883 5883 5884 5885 5886 5887 5888 5889 5890 5891 5892 5893 5893 5894 5895 5895 5896 5896 5896 5897 5896 5896 5896 5896 5896 5896 5895 5895 5895 5894 5894 5894 5894
5869 5870 5871 5872 5873 5875 5876 5877 5878 5879 5880 5881 5882 5883 5884 5885 5886 5887 5889 5889 5890 5891 5892 5892 5893 5894 5894 5895 5895 5896 5895 5895 5895 5895 5895 5895 5894 5894 5894 5893 5893 5892 5892
5866 5867 5868 5869 5870 5872 5873 5874 5875 5876 5878 5878 5879 5880 5881 5883 5884 5885 5887 5888 5888 5889 5890 5891 5891 5892 5893 5893 5894 5894 5894 5894 5894 5894 5894 5894 5893 5893 5892 5892 5891 5891 5890
5863 5863 5865 5866 5867 5869 5870 5871 5872 5873 5875 5876 5877 5878 5879 5880 5882 5883 5885 5886 5886 5887 5888 5889 5889 5890 5891 5892 5892 5892 5893 5894 5893 5893 5893 5892 5892 5891 5891 5890 5890 5889 5889
5860 5860 5862 5863 5864 5865 5867 5868 5870 5871 5872 5873 5874 5876 5877 5878 5879 5881 5882 5883 5884 5885 5886 5887 5888 5888 5889 5890 5890 5891 5891 5892 5891 5891 5891 5891 5890 5890 5890 5889 5888 5888 5887
5858 5858 5859 5860 5861 5863 5864 5866 5867 5868 5870 5871 5872 5873 5874 5876 5877 5878 5880 5881 5882 5883 5884 5885 5886 5887 5887 5888 5889 5889 5890 5890 5890 5890 5890 5890 5889 5888 5888 5887 5887 5886 5886
5855 5856 5856 5857 5859 5860 5862 5863 5865 5866 5867 5868 5870 5871 5872 5874 5875 5876 5877 5879 5880 5881 5882 5882 5883 5884 5885 5886 5887 5887 5887 5888 5888 5888 5888 5888 5888 5887 5887 5886 5885 5885 5884
5852 5853 5854 5855 5857 5858 5860 5861 5863 5864 5865 5866 5867 5869 5870 5871 5872 5873 5875 5876 5877 5879 5880 5881 5881 5882 5883 5884 5884 5885 5885 5886 5886 5887 5887 5886 5886 5886 5885 5885 5884 5883 5882